Tracking 19854 objects as of 23-Sep-2019
HD Live streaming from Space Station
objects crossing your sky now

TANSEI 3 (MS-T3)

Track TANSEI 3 (MS-T3) now!
10-day predictions
TANSEI 3 (MS-T3) is classified as:


NORAD ID: 9841
Int'l Code: 1977-012A
Perigee: 802.3 km
Apogee: 3,812.8 km
Inclination: 65.8 °
Period: 134.1 minutes
Semi major axis: 8678 km
RCS: 1.5301 m2 (large)
Launch date: February 19, 1977
Source: Japan (JPN)
Launch site: KAGOSHIMA SPACE CENTER UNIVERSITY OF TOKYO (KSCUT)
aabbcc
Your satellite tracking list
Your tracking list is empty




NASA's NSSDC Master Catalog

Two Line Element Set (TLE):
1  9841U 77012A   19265.86666059 -.00000021  00000-0  47413-4 0  9995
2  9841  65.7562 239.2667 1734458 236.9281 105.3256 10.73825652669836
Source of the keplerian elements: AFSPC